TimeEDT,TemperatureF,Dew PointF,Humidity,Sea Level PressureIn,VisibilityMPH,Wind Direction,Wind SpeedMPH,Gust SpeedMPH,PrecipitationIn,Events,Conditions,WindDirDegrees,DateUTC
12:56 AM,66.0,61.0,84,30.16,10.0,NE,10.4,-,N/A,,Overcast,50,2013-05-02 04:56:00
1:56 AM,66.0,61.0,84,30.14,10.0,NE,10.4,-,N/A,,Overcast,50,2013-05-02 05:56:00
2:17 AM,66.2,60.8,83,30.14,10.0,NE,10.4,-,N/A,,Overcast,40,2013-05-02 06:17:00
2:56 AM,66.0,61.0,84,30.14,10.0,NE,10.4,-,N/A,,Overcast,40,2013-05-02 06:56:00
3:56 AM,66.0,62.1,87,30.13,10.0,NE,10.4,-,N/A,,Mostly Cloudy,50,2013-05-02 07:56:00
4:23 AM,66.2,62.6,88,30.13,10.0,NE,10.4,-,N/A,,Mostly Cloudy,50,2013-05-02 08:23:00
4:44 AM,66.2,62.6,88,30.13,10.0,NE,13.8,-,N/A,,Mostly Cloudy,50,2013-05-02 08:44:00
4:56 AM,66.0,61.0,84,30.13,10.0,NE,9.2,-,N/A,,Mostly Cloudy,50,2013-05-02 08:56:00
5:13 AM,66.2,60.8,83,30.13,10.0,NE,9.2,-,N/A,,Overcast,50,2013-05-02 09:13:00
5:56 AM,66.0,61.0,84,30.13,10.0,ENE,15.0,-,N/A,,Overcast,60,2013-05-02 09:56:00
6:56 AM,66.0,61.0,84,30.15,10.0,ENE,11.5,-,N/A,,Overcast,60,2013-05-02 10:56:00
7:56 AM,66.9,61.0,81,30.15,10.0,ENE,12.7,-,N/A,,Mostly Cloudy,70,2013-05-02 11:56:00
8:39 AM,68.0,60.8,78,30.16,10.0,ENE,15.0,-,N/A,,Mostly Cloudy,60,2013-05-02 12:39:00
8:56 AM,69.1,61.0,75,30.17,10.0,ENE,15.0,19.6,N/A,,Overcast,70,2013-05-02 12:56:00
9:56 AM,69.1,60.1,73,30.17,10.0,ENE,13.8,-,N/A,,Overcast,70,2013-05-02 13:56:00
10:20 AM,69.8,60.8,73,30.17,10.0,ENE,15.0,19.6,N/A,,Overcast,70,2013-05-02 14:20:00
10:56 AM,68.0,61.0,78,30.18,10.0,East,13.8,-,0.00,Rain,Light Rain,80,2013-05-02 14:56:00
11:56 AM,66.0,62.1,87,30.18,10.0,ENE,15.0,24.2,0.01,Rain,Light Rain,70,2013-05-02 15:56:00
12:56 PM,66.9,63.0,87,30.18,7.0,NE,10.4,-,0.00,,Overcast,50,2013-05-02 16:56:00
1:39 PM,69.8,62.6,78,30.17,10.0,ENE,12.7,-,0.00,,Overcast,60,2013-05-02 17:39:00
1:56 PM,71.1,63.0,75,30.17,10.0,ENE,10.4,-,0.00,,Overcast,60,2013-05-02 17:56:00
2:56 PM,73.0,61.0,66,30.15,10.0,ENE,15.0,27.6,N/A,,Mostly Cloudy,70,2013-05-02 18:56:00
3:56 PM,75.0,60.1,60,30.13,10.0,ENE,20.7,28.8,N/A,,Mostly Cloudy,60,2013-05-02 19:56:00
4:56 PM,73.9,61.0,64,30.12,10.0,ENE,18.4,23.0,N/A,,Mostly Cloudy,60,2013-05-02 20:56:00
5:56 PM,72.0,60.1,66,30.13,10.0,ENE,13.8,24.2,N/A,,Mostly Cloudy,70,2013-05-02 21:56:00
6:56 PM,69.1,60.1,73,30.12,10.0,ENE,15.0,21.9,N/A,,Mostly Cloudy,60,2013-05-02 22:56:00
7:56 PM,66.9,59.0,76,30.13,10.0,ENE,16.1,25.3,N/A,,Mostly Cloudy,70,2013-05-02 23:56:00
8:56 PM,66.0,59.0,78,30.14,10.0,ENE,12.7,-,N/A,,Overcast,60,2013-05-03 00:56:00
9:56 PM,64.9,57.0,75,30.14,10.0,ENE,11.5,-,N/A,,Overcast,60,2013-05-03 01:56:00
10:56 PM,64.9,55.0,70,30.14,10.0,ENE,12.7,-,N/A,,Overcast,60,2013-05-03 02:56:00
11:56 PM,66.0,54.0,65,30.12,10.0,ENE,10.4,-,0.00,,Overcast,60,2013-05-03 03:56:00